Change the Weather History Date:

Friday, February 21, 2014

  Actual Average Record
Temperature  
Mean Temperature 37 °F 37 °F  
Max Temperature 48 °F 46 °F 60 °F (2002)
Min Temperature 25 °F 27 °F 16 °F (2006)
Degree Days  
Heating Degree Days 28 28  
Month to date heating degree days 741 642  
Since 1 July heating degree days 4425 4316  
Cooling Degree Days 0 0  
Month to date cooling degree days 0 0  
Year to date cooling degree days 0 0  
Moisture  
Dew Point 22 °F    
Average Humidity 58    
Maximum Humidity 81    
Minimum Humidity 34    
Precipitation  
Precipitation 0.00 in 0.02 in 0.12 in (1999)
Month to date precipitation 0.66 0.62  
Year to date precipitation 1.06 1.76  
Sea Level Pressure  
Sea Level Pressure 30.14 in    
Wind  
Wind Speed 7 mph (North)    
Max Wind Speed 18 mph    
Max Gust Speed 21 mph    
Visibility 10 miles    
Events      
T = Trace of Precipitation, MM = Missing Value Source: NWS Daily Summary

Daily Weather History Graph

Daily Weather History Graph

Search for Another Location

Airport or City:

Trip Planner

Search our weather history database for the weather conditions in past years. The results will help you decide how hot, cold, wet, or windy it might be!

Date:

Astronomy

Feb. 21, 2014 Rise Set
Actual Time 6:51 AM PST 5:30 PM PST
Civil Twilight 6:20 AM PST 6:01 PM PST
Nautical Twilight 5:45 AM PST 6:37 PM PST
Astronomical Twilight 5:09 AM PST 7:12 PM PST
Moon No Moon Rise 9:52 AM PST (2/21)
Length of Visible Light 11h 41m
Length of Day
10h 39m
Waning Gibbous, 59% of the Moon is Illuminated
Feb 21
Waning Gibbous
Feb 22
Last Quarter
Mar 1
New
Mar 8
First Quarter
Mar 16
Full

Hourly Weather History & Observations

Time (PST) Temp. Windchill Dew Point Humidity Pressure Visibility Wind Dir Wind Speed Gust Speed Precip Events Conditions
12:52 AM 36.0 °F 29.0 °F 25.0 °F 64% 30.06 in 10.0 mi West 9.2 mph - N/A   Clear
1:52 AM 39.0 °F 32.8 °F 23.0 °F 53% 30.21 in 10.0 mi WNW 9.2 mph - N/A   Clear
2:52 AM 36.0 °F 31.1 °F 23.0 °F 59% 30.06 in 10.0 mi South 5.8 mph - N/A   Clear
3:52 AM 39.0 °F 32.3 °F 21.9 °F 50% 30.06 in 10.0 mi SW 10.4 mph - N/A   Clear
4:52 AM 35.1 °F 32.2 °F 21.9 °F 59% 30.08 in 10.0 mi Variable 3.5 mph - N/A   Clear
5:52 AM 26.1 °F - 21.9 °F 84% 30.09 in 10.0 mi Calm Calm - N/A   Clear
6:52 AM 28.9 °F 25.2 °F 23.0 °F 78% 30.11 in 10.0 mi Variable 3.5 mph - N/A   Clear
7:52 AM 36.0 °F - 25.0 °F 64% 30.12 in 10.0 mi Calm Calm - N/A   Clear
8:52 AM 39.9 °F 35.8 °F 25.0 °F 55% 30.14 in 10.0 mi North 5.8 mph - N/A   Overcast
9:52 AM 42.1 °F 35.2 °F 24.1 °F 49% 30.15 in 10.0 mi North 12.7 mph - N/A   Partly Cloudy
10:52 AM 43.0 °F - 24.1 °F 47% 30.17 in - North - - N/A   Unknown
11:52 AM 46.9 °F - 21.0 °F 36% 30.17 in 10.0 mi NNE 11.5 mph - N/A   Overcast
12:52 PM 45.0 °F 40.6 °F 19.9 °F 37% 30.16 in 10.0 mi NE 8.1 mph - N/A   Overcast
1:52 PM 46.0 °F - 21.0 °F 37% 30.15 in 10.0 mi North - - N/A   Overcast
2:52 PM 44.1 °F 41.5 °F 19.0 °F 37% 30.14 in 10.0 mi NW 4.6 mph - N/A   Scattered Clouds
3:52 PM 46.0 °F 42.5 °F 19.9 °F 35% 30.13 in 10.0 mi NE 6.9 mph - N/A   Overcast
4:52 PM 44.1 °F 40.8 °F 19.9 °F 38% 30.14 in 10.0 mi NE 5.8 mph - N/A   Mostly Cloudy
5:52 PM 39.9 °F 34.5 °F 21.9 °F 49% 30.16 in 10.0 mi NNE 8.1 mph - N/A   Mostly Cloudy
6:52 PM 37.9 °F 32.1 °F 21.9 °F 53% 30.17 in 10.0 mi North 8.1 mph - N/A   Mostly Cloudy
7:52 PM 35.1 °F 30.1 °F 21.0 °F 57% 30.17 in 10.0 mi North 5.8 mph - N/A   Overcast
8:52 PM 33.1 °F 26.1 °F 21.0 °F 61% 30.17 in 10.0 mi North 8.1 mph - N/A   Partly Cloudy
9:52 PM 33.1 °F 28.7 °F 21.9 °F 64% 30.18 in 10.0 mi North 4.6 mph - N/A   Overcast
10:52 PM 30.0 °F 23.2 °F 21.0 °F 69% 30.19 in 10.0 mi North 6.9 mph - N/A   Mostly Cloudy
11:52 PM 28.9 °F 21.9 °F 21.0 °F 72% 30.19 in 10.0 mi North 6.9 mph - N/A   Scattered Clouds